Year,Month,Day,Hour,Minute,Value (Times are PST for temperature in C)
2020,10,23,00,00,-16.80
2020,10,23,00,01,-16.80
2020,10,23,00,02,-16.80
2020,10,23,00,03,-16.80
2020,10,23,00,04,-16.80
2020,10,23,00,05,-16.80
2020,10,23,00,06,-16.80
2020,10,23,00,07,-16.80
2020,10,23,00,08,-16.80
2020,10,23,00,09,-16.80
2020,10,23,00,10,-16.90
2020,10,23,00,11,-16.90
2020,10,23,00,12,-16.90
2020,10,23,00,13,-16.90
2020,10,23,00,14,-16.90
2020,10,23,00,15,-16.90
2020,10,23,00,16,-16.90
2020,10,23,00,17,-16.90
2020,10,23,00,18,-17.00
2020,10,23,00,19,-17.00
2020,10,23,00,20,-17.00
2020,10,23,00,21,-17.00
2020,10,23,00,22,-17.00
2020,10,23,00,23,-17.00
2020,10,23,00,24,-17.00
2020,10,23,00,25,-17.10
2020,10,23,00,26,-17.10
2020,10,23,00,27,-17.10
2020,10,23,00,28,-17.10
2020,10,23,00,29,-17.10
2020,10,23,00,30,-17.10
2020,10,23,00,31,-17.10
2020,10,23,00,32,-17.10
2020,10,23,00,33,-17.10
2020,10,23,00,34,-17.10
2020,10,23,00,35,-17.10
2020,10,23,00,36,-17.10
2020,10,23,00,37,-17.10
2020,10,23,00,38,-17.20
2020,10,23,00,39,-17.20
2020,10,23,00,40,-17.20
2020,10,23,00,41,-17.20
2020,10,23,00,42,-17.20
2020,10,23,00,43,-17.20
2020,10,23,00,44,-17.20
2020,10,23,00,45,-17.20
2020,10,23,00,46,-17.20
2020,10,23,00,47,-17.20
2020,10,23,00,48,-17.20
2020,10,23,00,49,-17.30
2020,10,23,00,50,-17.30
2020,10,23,00,51,-17.30
2020,10,23,00,52,-17.30
2020,10,23,00,53,-17.30
2020,10,23,00,54,-17.30
2020,10,23,00,55,-17.30
2020,10,23,00,56,-17.30
2020,10,23,00,57,-17.30
2020,10,23,00,58,-17.30
2020,10,23,00,59,-17.30
2020,10,23,01,00,-17.30
2020,10,23,01,01,-17.30
2020,10,23,01,02,-17.30
2020,10,23,01,03,-17.30
2020,10,23,01,04,-17.30
2020,10,23,01,05,-17.40
2020,10,23,01,06,-17.40
2020,10,23,01,07,-17.40
2020,10,23,01,08,-17.30
2020,10,23,01,09,-17.30
2020,10,23,01,10,-17.30
2020,10,23,01,11,-17.30
2020,10,23,01,12,-17.30
2020,10,23,01,13,-17.30
2020,10,23,01,14,-17.30
2020,10,23,01,15,-17.30
2020,10,23,01,16,-17.30
2020,10,23,01,17,-17.30
2020,10,23,01,18,-17.40
2020,10,23,01,19,-17.40
2020,10,23,01,20,-17.40
2020,10,23,01,21,-17.40
2020,10,23,01,22,-17.40
2020,10,23,01,23,-17.40
2020,10,23,01,24,-17.40
2020,10,23,01,25,-17.50
2020,10,23,01,26,-17.50
2020,10,23,01,27,-17.50
2020,10,23,01,28,-17.50
2020,10,23,01,29,-17.50
2020,10,23,01,30,-17.50
2020,10,23,01,31,-17.50
2020,10,23,01,32,-17.50
2020,10,23,01,33,-17.60
2020,10,23,01,34,-17.60
2020,10,23,01,35,-17.60
2020,10,23,01,36,-17.60
2020,10,23,01,37,-17.60
2020,10,23,01,38,-17.60
2020,10,23,01,39,-17.60
2020,10,23,01,40,-17.60
2020,10,23,01,41,-17.60
2020,10,23,01,42,-17.60
2020,10,23,01,43,-17.60
2020,10,23,01,44,-17.70
2020,10,23,01,45,-17.70
2020,10,23,01,46,-17.70
2020,10,23,01,47,-17.70
2020,10,23,01,48,-17.70
2020,10,23,01,49,-17.70
2020,10,23,01,50,-17.70
2020,10,23,01,51,-17.70
2020,10,23,01,52,-17.70
2020,10,23,01,53,-17.70
2020,10,23,01,54,-17.70
2020,10,23,01,55,-17.70
2020,10,23,01,56,-17.70
2020,10,23,01,57,-17.70
2020,10,23,01,58,-17.70
2020,10,23,01,59,-17.70
2020,10,23,02,00,-17.70
2020,10,23,02,01,-17.70
2020,10,23,02,02,-17.70
2020,10,23,02,03,-17.70
2020,10,23,02,04,-17.70
2020,10,23,02,05,-17.70
2020,10,23,02,06,-17.70
2020,10,23,02,07,-17.70
2020,10,23,02,08,-17.70
2020,10,23,02,09,-17.70
2020,10,23,02,10,-17.70
2020,10,23,02,11,-17.70
2020,10,23,02,12,-17.70
2020,10,23,02,13,-17.70
2020,10,23,02,14,-17.70
2020,10,23,02,15,-17.70
2020,10,23,02,16,-17.70
2020,10,23,02,17,-17.70
2020,10,23,02,18,-17.80
2020,10,23,02,19,-17.80
2020,10,23,02,20,-17.80
2020,10,23,02,21,-17.80
2020,10,23,02,22,-17.80
2020,10,23,02,23,-17.80
2020,10,23,02,24,-17.80
2020,10,23,02,25,-17.80
2020,10,23,02,26,-17.80
2020,10,23,02,27,-17.80
2020,10,23,02,28,-17.80
2020,10,23,02,29,-17.80
2020,10,23,02,30,-17.80
2020,10,23,02,31,-17.80
2020,10,23,02,32,-17.80
2020,10,23,02,33,-17.90
2020,10,23,02,34,-17.90
2020,10,23,02,35,-17.90
2020,10,23,02,36,-17.90
2020,10,23,02,37,-17.90
2020,10,23,02,38,-17.90
2020,10,23,02,39,-17.90
2020,10,23,02,40,-18.00
2020,10,23,02,41,-18.00
2020,10,23,02,42,-18.00
2020,10,23,02,43,-18.00
2020,10,23,02,44,-18.00
2020,10,23,02,45,-18.00
2020,10,23,02,46,-18.00
2020,10,23,02,47,-18.00
2020,10,23,02,48,-18.00
2020,10,23,02,49,-18.00
2020,10,23,02,50,-18.00
2020,10,23,02,51,-18.00
2020,10,23,02,52,-18.00
2020,10,23,02,53,-18.00
2020,10,23,02,54,-18.00
2020,10,23,02,55,-18.00
2020,10,23,02,56,-18.00
2020,10,23,02,57,-18.10
2020,10,23,02,58,-18.10
2020,10,23,02,59,-18.10
2020,10,23,03,00,-18.10
2020,10,23,03,01,-18.10
2020,10,23,03,02,-18.10
2020,10,23,03,03,-18.20
2020,10,23,03,04,-18.20
2020,10,23,03,05,-18.20
2020,10,23,03,06,-18.20
2020,10,23,03,07,-18.20
2020,10,23,03,08,-18.20
2020,10,23,03,09,-18.20
2020,10,23,03,10,-18.30
2020,10,23,03,11,-18.30
2020,10,23,03,12,-18.30
2020,10,23,03,13,-18.30
2020,10,23,03,14,-18.30
2020,10,23,03,15,-18.30
2020,10,23,03,16,-18.30
2020,10,23,03,17,-18.30
2020,10,23,03,18,-18.30
2020,10,23,03,19,-18.30
2020,10,23,03,20,-18.30
2020,10,23,03,21,-18.30
2020,10,23,03,22,-18.30
2020,10,23,03,23,-18.30
2020,10,23,03,24,-18.30
2020,10,23,03,25,-18.30
2020,10,23,03,26,-18.40
2020,10,23,03,27,-18.40
2020,10,23,03,28,-18.40
2020,10,23,03,29,-18.40
2020,10,23,03,30,-18.40
2020,10,23,03,31,-18.40
2020,10,23,03,32,-18.40
2020,10,23,03,33,-18.40
2020,10,23,03,34,-18.50
2020,10,23,03,35,-18.50
2020,10,23,03,36,-18.50
2020,10,23,03,37,-18.50
2020,10,23,03,38,-18.50
2020,10,23,03,39,-18.50
2020,10,23,03,40,-18.50
2020,10,23,03,41,-18.50
2020,10,23,03,42,-18.50
2020,10,23,03,43,-18.50
2020,10,23,03,44,-18.50
2020,10,23,03,45,-18.50
2020,10,23,03,46,-18.50
2020,10,23,03,47,-18.50
2020,10,23,03,48,-18.50
2020,10,23,03,49,-18.50
2020,10,23,03,50,-18.50
2020,10,23,03,51,-18.50
2020,10,23,03,52,-18.50
2020,10,23,03,53,-18.50
2020,10,23,03,54,-18.50
2020,10,23,03,55,-18.50
2020,10,23,03,56,-18.50
2020,10,23,03,57,-18.50
2020,10,23,03,58,-18.50
2020,10,23,03,59,-18.60
2020,10,23,04,00,-18.60
2020,10,23,04,01,-18.60
2020,10,23,04,02,-18.60
2020,10,23,04,03,-18.60
2020,10,23,04,04,-18.60
2020,10,23,04,05,-18.60
2020,10,23,04,06,-18.60
2020,10,23,04,07,-18.60
2020,10,23,04,08,-18.60
2020,10,23,04,09,-18.60
2020,10,23,04,10,-18.60
2020,10,23,04,11,-18.60
2020,10,23,04,12,-18.60
2020,10,23,04,13,-18.60
2020,10,23,04,14,-18.70
2020,10,23,04,15,-18.70
2020,10,23,04,16,-18.70
2020,10,23,04,17,-18.70
2020,10,23,04,18,-18.70
2020,10,23,04,19,-18.70
2020,10,23,04,20,-18.70
2020,10,23,04,21,-18.80
2020,10,23,04,22,-18.80
2020,10,23,04,23,-18.80
2020,10,23,04,24,-18.80
2020,10,23,04,25,-18.80
2020,10,23,04,26,-18.80
2020,10,23,04,27,-18.80
2020,10,23,04,28,-18.80
2020,10,23,04,29,-18.80
2020,10,23,04,30,-18.80
2020,10,23,04,31,-18.80
2020,10,23,04,32,-18.80
2020,10,23,04,33,-18.80
2020,10,23,04,34,-18.80
2020,10,23,04,35,-18.80
2020,10,23,04,36,-18.80
2020,10,23,04,37,-18.80
2020,10,23,04,38,-18.80
2020,10,23,04,39,-18.80
2020,10,23,04,40,-18.80
2020,10,23,04,41,-18.80
2020,10,23,04,42,-18.80
2020,10,23,04,43,-18.70
2020,10,23,04,44,-18.70
2020,10,23,04,45,-18.70
2020,10,23,04,46,-18.60
2020,10,23,04,47,-18.60
2020,10,23,04,48,-18.60
2020,10,23,04,49,-18.50
2020,10,23,04,50,-18.50
2020,10,23,04,51,-18.50
2020,10,23,04,52,-18.50
2020,10,23,04,53,-18.50
2020,10,23,04,54,-18.60
2020,10,23,04,55,-18.60
2020,10,23,04,56,-18.60
2020,10,23,04,57,-18.60
2020,10,23,04,58,-18.60
2020,10,23,04,59,-18.60
2020,10,23,05,00,-18.60
2020,10,23,05,01,-18.60
2020,10,23,05,02,-18.60
2020,10,23,05,03,-18.70
2020,10,23,05,04,-18.70
2020,10,23,05,05,-18.70
2020,10,23,05,06,-18.70
2020,10,23,05,07,-18.70
2020,10,23,05,08,-18.70
2020,10,23,05,09,-18.70
2020,10,23,05,10,-18.70
2020,10,23,05,11,-18.70
2020,10,23,05,12,-18.70
2020,10,23,05,13,-18.70
2020,10,23,05,14,-18.70
2020,10,23,05,15,-18.70
2020,10,23,05,16,-18.70
2020,10,23,05,17,-18.70
2020,10,23,05,18,-18.70
2020,10,23,05,19,-18.70
2020,10,23,05,20,-18.70
2020,10,23,05,21,-18.70
2020,10,23,05,22,-18.70
2020,10,23,05,23,-18.70
2020,10,23,05,24,-18.70
2020,10,23,05,25,-18.70
2020,10,23,05,26,-18.70
2020,10,23,05,27,-18.70
2020,10,23,05,28,-18.80
2020,10,23,05,29,-18.80
2020,10,23,05,30,-18.80
2020,10,23,05,31,-18.80
2020,10,23,05,32,-18.80
2020,10,23,05,33,-18.80
2020,10,23,05,34,-18.80
2020,10,23,05,35,-18.90
2020,10,23,05,36,-18.90
2020,10,23,05,37,-18.90
2020,10,23,05,38,-18.90
2020,10,23,05,39,-18.90
2020,10,23,05,40,-18.90
2020,10,23,05,41,-18.90
2020,10,23,05,42,-19.00
2020,10,23,05,43,-19.00
2020,10,23,05,44,-19.00
2020,10,23,05,45,-19.00
2020,10,23,05,46,-19.00
2020,10,23,05,47,-19.00
2020,10,23,05,48,-19.00
2020,10,23,05,49,-19.00
2020,10,23,05,50,-19.00
2020,10,23,05,51,-19.00
2020,10,23,05,52,-19.10
2020,10,23,05,53,-19.10
2020,10,23,05,54,-19.10
2020,10,23,05,55,-19.10
2020,10,23,05,56,-19.10
2020,10,23,05,57,-19.10
2020,10,23,05,58,-19.10
2020,10,23,05,59,-19.10
2020,10,23,06,00,-19.10
2020,10,23,06,01,-19.10
2020,10,23,06,02,-19.10
2020,10,23,06,03,-19.10
2020,10,23,06,04,-19.10
2020,10,23,06,05,-19.10
2020,10,23,06,06,-19.10
2020,10,23,06,07,-19.10
2020,10,23,06,08,-19.10
2020,10,23,06,09,-19.10
2020,10,23,06,10,-19.10
2020,10,23,06,11,-19.20
2020,10,23,06,12,-19.20
2020,10,23,06,13,-19.20
2020,10,23,06,14,-19.20
2020,10,23,06,15,-19.20
2020,10,23,06,16,-19.20
2020,10,23,06,17,-19.20
2020,10,23,06,18,-19.20
2020,10,23,06,19,-19.30
2020,10,23,06,20,-19.30
2020,10,23,06,21,-19.30
2020,10,23,06,22,-19.30
2020,10,23,06,23,-19.30
2020,10,23,06,24,-19.30
2020,10,23,06,25,-19.30
2020,10,23,06,26,-19.30
2020,10,23,06,27,-19.30
2020,10,23,06,28,-19.30
2020,10,23,06,29,-19.30
2020,10,23,06,30,-19.30
2020,10,23,06,31,-19.30
2020,10,23,06,32,-19.30
2020,10,23,06,33,-19.30
2020,10,23,06,34,-19.30
2020,10,23,06,35,-19.40
2020,10,23,06,36,-19.40
2020,10,23,06,37,-19.40
2020,10,23,06,38,-19.40
2020,10,23,06,39,-19.40
2020,10,23,06,40,-19.40
2020,10,23,06,41,-19.40
2020,10,23,06,42,-19.40
2020,10,23,06,43,-19.40
2020,10,23,06,44,-19.40
2020,10,23,06,45,-19.40
2020,10,23,06,46,-19.50
2020,10,23,06,47,-19.50
2020,10,23,06,48,-19.50
2020,10,23,06,49,-19.50
2020,10,23,06,50,-19.50
2020,10,23,06,51,-19.50
2020,10,23,06,52,-19.50
2020,10,23,06,53,-19.50
2020,10,23,06,54,-19.50
2020,10,23,06,55,-19.50
2020,10,23,06,56,-19.60
2020,10,23,06,57,-19.60
2020,10,23,06,58,-19.60
2020,10,23,06,59,-19.60
2020,10,23,07,00,-19.60
2020,10,23,07,01,-19.50
2020,10,23,07,02,-19.50
2020,10,23,07,03,-19.40
2020,10,23,07,04,-19.30
2020,10,23,07,05,-19.30
2020,10,23,07,06,-19.20
2020,10,23,07,07,-19.20
2020,10,23,07,08,-19.20
2020,10,23,07,09,-19.10
2020,10,23,07,10,-19.10
2020,10,23,07,11,-19.10
2020,10,23,07,12,-19.10
2020,10,23,07,13,-19.10
2020,10,23,07,14,-19.20
2020,10,23,07,15,-19.20
2020,10,23,07,16,-19.20
2020,10,23,07,17,-19.20
2020,10,23,07,18,-19.20
2020,10,23,07,19,-19.20
2020,10,23,07,20,-19.20
2020,10,23,07,21,-19.20
2020,10,23,07,22,-19.20
2020,10,23,07,23,-19.30
2020,10,23,07,24,-19.30
2020,10,23,07,25,-19.30
2020,10,23,07,26,-19.30
2020,10,23,07,27,-19.30
2020,10,23,07,28,-19.30
2020,10,23,07,29,-19.30
2020,10,23,07,30,-19.30
2020,10,23,07,31,-19.30
2020,10,23,07,32,-19.40
2020,10,23,07,33,-19.40
2020,10,23,07,34,-19.40
2020,10,23,07,35,-19.40
2020,10,23,07,36,-19.40
2020,10,23,07,37,-19.40
2020,10,23,07,38,-19.40
2020,10,23,07,39,-19.40
2020,10,23,07,40,-19.40
2020,10,23,07,41,-19.40
2020,10,23,07,42,-19.40
2020,10,23,07,43,-19.40
2020,10,23,07,44,-19.40
2020,10,23,07,45,-19.40
2020,10,23,07,46,-19.40
2020,10,23,07,47,-19.40
2020,10,23,07,48,-19.40
2020,10,23,07,49,-19.40
2020,10,23,07,50,-19.50
2020,10,23,07,51,-19.50
2020,10,23,07,52,-19.50
2020,10,23,07,53,-19.50
2020,10,23,07,54,-19.60
2020,10,23,07,55,-19.60
2020,10,23,07,56,-19.60
2020,10,23,07,57,-19.60
2020,10,23,07,58,-19.60
2020,10,23,07,59,-19.60
2020,10,23,08,00,-19.60
2020,10,23,08,01,-19.60
2020,10,23,08,02,-19.60
2020,10,23,08,03,-19.70
2020,10,23,08,04,-19.70
2020,10,23,08,05,-19.70
2020,10,23,08,06,-19.70
2020,10,23,08,07,-19.70
2020,10,23,08,08,-19.70
2020,10,23,08,09,-19.70
2020,10,23,08,10,-19.70
2020,10,23,08,11,-19.70
2020,10,23,08,12,-19.70
2020,10,23,08,13,-19.70
2020,10,23,08,14,-19.70
2020,10,23,08,15,-19.70
2020,10,23,08,16,-19.70
2020,10,23,08,17,-19.70
2020,10,23,08,18,-19.70
2020,10,23,08,19,-19.70
2020,10,23,08,20,-19.70
2020,10,23,08,21,-19.70
2020,10,23,08,22,-19.70
2020,10,23,08,23,-19.70
2020,10,23,08,24,-19.70
2020,10,23,08,25,-19.70
2020,10,23,08,26,-19.70
2020,10,23,08,27,-19.70
2020,10,23,08,28,-19.70
2020,10,23,08,29,-19.70
2020,10,23,08,30,-19.70
2020,10,23,08,31,-19.70
2020,10,23,08,32,-19.70
2020,10,23,08,33,-19.70
2020,10,23,08,34,-19.70
2020,10,23,08,35,-19.70
2020,10,23,08,36,-19.70
2020,10,23,08,37,-19.70
2020,10,23,08,38,-19.80
2020,10,23,08,39,-19.80
2020,10,23,08,40,-19.80
2020,10,23,08,41,-19.80
2020,10,23,08,42,-19.80
2020,10,23,08,43,-19.80
2020,10,23,08,44,-19.80
2020,10,23,08,45,-19.80
2020,10,23,08,46,-19.80
2020,10,23,08,47,-19.80
2020,10,23,08,48,-19.80
2020,10,23,08,49,-19.80
2020,10,23,08,50,-19.80
2020,10,23,08,51,-19.80
2020,10,23,08,52,-19.80
2020,10,23,08,53,-19.80
2020,10,23,08,54,-19.80
2020,10,23,08,55,-19.90
2020,10,23,08,56,-19.90
2020,10,23,08,57,-19.90
2020,10,23,08,58,-19.90
2020,10,23,08,59,-19.90
2020,10,23,09,00,-19.90
2020,10,23,09,01,-19.90
2020,10,23,09,02,-19.90
2020,10,23,09,03,-19.90
2020,10,23,09,04,-19.90
2020,10,23,09,05,-19.90
2020,10,23,09,06,-19.90
2020,10,23,09,07,-19.90
2020,10,23,09,08,-20.00
2020,10,23,09,09,-20.00
2020,10,23,09,10,-20.00
2020,10,23,09,11,-20.00
2020,10,23,09,12,-20.00
2020,10,23,09,13,-20.00
2020,10,23,09,14,-20.00
2020,10,23,09,15,-20.00
2020,10,23,09,16,-20.10
2020,10,23,09,17,-20.10
2020,10,23,09,18,-20.10
2020,10,23,09,19,-20.10
2020,10,23,09,20,-20.10
2020,10,23,09,21,-20.10
2020,10,23,09,22,-20.10
2020,10,23,09,23,-20.10
2020,10,23,09,24,-20.10
2020,10,23,09,25,-20.10
2020,10,23,09,26,-20.20
2020,10,23,09,27,-20.20
2020,10,23,09,28,-20.20
2020,10,23,09,29,-20.20
2020,10,23,09,30,-20.20
2020,10,23,09,31,-20.20
2020,10,23,09,32,-20.20
2020,10,23,09,33,-20.20
2020,10,23,09,34,-20.20
2020,10,23,09,35,-20.20
2020,10,23,09,36,-20.20
2020,10,23,09,37,-20.20
2020,10,23,09,38,-20.20
2020,10,23,09,39,-20.20
2020,10,23,09,40,-20.20
2020,10,23,09,41,-20.20
2020,10,23,09,42,-20.20
2020,10,23,09,43,-20.20
2020,10,23,09,44,-20.20
2020,10,23,09,45,-20.20
2020,10,23,09,46,-20.20
2020,10,23,09,47,-20.20
2020,10,23,09,48,-20.20
2020,10,23,09,49,-20.20
2020,10,23,09,50,-20.20
2020,10,23,09,51,-20.20
2020,10,23,09,52,-20.20
2020,10,23,09,53,-20.20
2020,10,23,09,54,-20.20
2020,10,23,09,55,-20.20
2020,10,23,09,56,-20.20
2020,10,23,09,57,-20.20
2020,10,23,09,58,-20.20
2020,10,23,09,59,-20.20
2020,10,23,10,00,-20.20
2020,10,23,10,01,-20.20
2020,10,23,10,02,-20.20
2020,10,23,10,03,-20.20
2020,10,23,10,04,-20.20
2020,10,23,10,05,-20.20
2020,10,23,10,06,-20.20
2020,10,23,10,07,-20.20
2020,10,23,10,08,-20.20
2020,10,23,10,09,-20.20
2020,10,23,10,10,-20.20
2020,10,23,10,11,-20.20
2020,10,23,10,12,-20.20
2020,10,23,10,13,-20.30
2020,10,23,10,14,-20.30
2020,10,23,10,15,-20.30
2020,10,23,10,16,-20.20
2020,10,23,10,17,-20.30
2020,10,23,10,18,-20.30
2020,10,23,10,19,-20.30
2020,10,23,10,20,-20.30
2020,10,23,10,21,-20.30
2020,10,23,10,22,-20.30
2020,10,23,10,23,-20.30
2020,10,23,10,24,-20.30
2020,10,23,10,25,-20.30
2020,10,23,10,26,-20.30
2020,10,23,10,27,-20.30
2020,10,23,10,28,-20.30
2020,10,23,10,29,-20.30
2020,10,23,10,30,-20.30
2020,10,23,10,31,-20.30
2020,10,23,10,32,-20.30
2020,10,23,10,33,-20.30
2020,10,23,10,34,-20.30
2020,10,23,10,35,-20.30
2020,10,23,10,36,-20.30
2020,10,23,10,37,-20.30
2020,10,23,10,38,-20.30
2020,10,23,10,39,-20.30
2020,10,23,10,40,-20.30
2020,10,23,10,41,-20.30
2020,10,23,10,42,-20.30
2020,10,23,10,43,-20.30
2020,10,23,10,44,-20.30
2020,10,23,10,45,-20.30
2020,10,23,10,46,-20.30
2020,10,23,10,47,-20.20
2020,10,23,10,48,-20.20
2020,10,23,10,49,-20.20
2020,10,23,10,50,-20.20
2020,10,23,10,51,-20.20
2020,10,23,10,52,-20.20
2020,10,23,10,53,-20.10
2020,10,23,10,54,-20.10
2020,10,23,10,55,-20.10
2020,10,23,10,56,-20.10
2020,10,23,10,57,-20.10
2020,10,23,10,58,-20.10
2020,10,23,10,59,-20.10
2020,10,23,11,00,-20.10
2020,10,23,11,01,-20.10
2020,10,23,11,02,-20.10
2020,10,23,11,03,-20.10
2020,10,23,11,04,-20.10
2020,10,23,11,05,-20.10
2020,10,23,11,06,-20.10
2020,10,23,11,07,-20.10
2020,10,23,11,08,-20.10
2020,10,23,11,09,-20.10
2020,10,23,11,10,-20.10
2020,10,23,11,11,-20.10
2020,10,23,11,12,-20.10
2020,10,23,11,13,-20.10
2020,10,23,11,14,-20.10
2020,10,23,11,15,-20.10
2020,10,23,11,16,-20.10
2020,10,23,11,17,-20.00
2020,10,23,11,18,-20.00
2020,10,23,11,19,-20.00
2020,10,23,11,20,-20.00
2020,10,23,11,21,-20.00
2020,10,23,11,22,-19.90
2020,10,23,11,23,-19.90
2020,10,23,11,24,-19.90
2020,10,23,11,25,-19.90
2020,10,23,11,26,-19.90
2020,10,23,11,27,-19.90
2020,10,23,11,28,-19.90
2020,10,23,11,29,-19.90
2020,10,23,11,30,-19.90
2020,10,23,11,31,-19.90
2020,10,23,11,32,-19.90
2020,10,23,11,33,-19.90
2020,10,23,11,34,-19.90
2020,10,23,11,35,-19.90
2020,10,23,11,36,-19.90
2020,10,23,11,37,-19.90
2020,10,23,11,38,-19.90
2020,10,23,11,39,-19.90
2020,10,23,11,40,-19.90
2020,10,23,11,41,-19.90
2020,10,23,11,42,-19.90
2020,10,23,11,43,-19.80
2020,10,23,11,44,-19.80
2020,10,23,11,45,-19.80
2020,10,23,11,46,-19.80
2020,10,23,11,47,-19.80
2020,10,23,11,48,-19.80
2020,10,23,11,49,-19.80
2020,10,23,11,50,-19.80
2020,10,23,11,51,-19.80
2020,10,23,11,52,-19.80
2020,10,23,11,53,-19.80
2020,10,23,11,54,-19.80
2020,10,23,11,55,-19.80
2020,10,23,11,56,-19.80
2020,10,23,11,57,-19.80
2020,10,23,11,58,-19.80
2020,10,23,11,59,-19.80
2020,10,23,12,00,-19.80
2020,10,23,12,01,-19.80
2020,10,23,12,02,-19.70
2020,10,23,12,03,-19.70
2020,10,23,12,04,-19.70
2020,10,23,12,05,-19.70
2020,10,23,12,06,-19.70
2020,10,23,12,07,-19.60
2020,10,23,12,08,-19.60
2020,10,23,12,09,-19.60
2020,10,23,12,10,-19.50
2020,10,23,12,11,-19.50
2020,10,23,12,12,-19.40
2020,10,23,12,13,-19.40
2020,10,23,12,14,-19.30
2020,10,23,12,15,-19.30
2020,10,23,12,16,-19.20
2020,10,23,12,17,-19.10
2020,10,23,12,18,-19.00
2020,10,23,12,19,-19.00
2020,10,23,12,20,-18.90
2020,10,23,12,21,-18.80
2020,10,23,12,22,-18.80
2020,10,23,12,23,-18.70
2020,10,23,12,24,-18.60
2020,10,23,12,25,-18.60
2020,10,23,12,26,-18.60
2020,10,23,12,27,-18.60
2020,10,23,12,28,-18.60
2020,10,23,12,29,-18.40
2020,10,23,12,30,-18.30
2020,10,23,12,31,-18.30
2020,10,23,12,32,-18.20
2020,10,23,12,33,-18.20
2020,10,23,12,34,-18.10
2020,10,23,12,35,-18.10
2020,10,23,12,36,-18.00
2020,10,23,12,37,-18.00
2020,10,23,12,38,-17.90
2020,10,23,12,39,-17.80
2020,10,23,12,40,-17.80
2020,10,23,12,41,-17.70
2020,10,23,12,42,-17.60
2020,10,23,12,43,-17.50
2020,10,23,12,44,-17.50
2020,10,23,12,45,-17.40
2020,10,23,12,46,-17.30
2020,10,23,12,47,-17.20
2020,10,23,12,48,-17.20
2020,10,23,12,49,-17.10
2020,10,23,12,50,-17.10
2020,10,23,12,51,-17.10
2020,10,23,12,52,-17.00
2020,10,23,12,53,-17.00
2020,10,23,12,54,-17.00
2020,10,23,12,55,-17.00
2020,10,23,12,56,-17.00
2020,10,23,12,57,-17.10
2020,10,23,12,58,-17.20
2020,10,23,12,59,-17.20
2020,10,23,13,00,-17.20
2020,10,23,13,01,-17.20
2020,10,23,13,02,-17.20
2020,10,23,13,03,-17.20
2020,10,23,13,04,-17.20
2020,10,23,13,05,-17.10
2020,10,23,13,06,-17.10
2020,10,23,13,07,-17.10
2020,10,23,13,08,-17.10
2020,10,23,13,09,-17.10
2020,10,23,13,10,-17.10
2020,10,23,13,11,-17.10
2020,10,23,13,12,-17.10
2020,10,23,13,13,-17.10
2020,10,23,13,14,-17.00
2020,10,23,13,15,-17.00
2020,10,23,13,16,-17.00
2020,10,23,13,17,-17.00
2020,10,23,13,18,-16.90
2020,10,23,13,19,-16.90
2020,10,23,13,20,-16.90
2020,10,23,13,21,-16.90
2020,10,23,13,22,-16.90
2020,10,23,13,23,-16.90
2020,10,23,13,24,-16.90
2020,10,23,13,25,-16.80
2020,10,23,13,26,-16.80
2020,10,23,13,27,-16.80
2020,10,23,13,28,-16.80
2020,10,23,13,29,-16.80
2020,10,23,13,30,-16.80
2020,10,23,13,31,-16.80
2020,10,23,13,32,-16.80
2020,10,23,13,33,-16.70
2020,10,23,13,34,-16.70
2020,10,23,13,35,-16.60
2020,10,23,13,36,-16.60
2020,10,23,13,37,-16.50
2020,10,23,13,38,-16.40
2020,10,23,13,39,-16.30
2020,10,23,13,40,-16.20
2020,10,23,13,41,-16.10
2020,10,23,13,42,-16.00
2020,10,23,13,43,-15.90
2020,10,23,13,44,-15.80
2020,10,23,13,45,-15.80
2020,10,23,13,46,-15.70
2020,10,23,13,47,-15.60
2020,10,23,13,48,-15.60
2020,10,23,13,49,-15.50
2020,10,23,13,50,-15.50
2020,10,23,13,51,-15.40
2020,10,23,13,52,-15.40
2020,10,23,13,53,-15.40
2020,10,23,13,54,-15.40
2020,10,23,13,55,-15.30
2020,10,23,13,56,-15.30
2020,10,23,13,57,-15.30
2020,10,23,13,58,-15.20
2020,10,23,13,59,-15.20
2020,10,23,14,00,-15.20
2020,10,23,14,01,-15.20
2020,10,23,14,02,-15.10
2020,10,23,14,03,-15.10
2020,10,23,14,04,-15.10
2020,10,23,14,05,-15.10
2020,10,23,14,06,-15.10
2020,10,23,14,07,-15.10
2020,10,23,14,08,-15.00
2020,10,23,14,09,-15.00
2020,10,23,14,10,-15.00
2020,10,23,14,11,-15.00
2020,10,23,14,12,-15.00
2020,10,23,14,13,-14.90
2020,10,23,14,14,-14.90
2020,10,23,14,15,-14.80
2020,10,23,14,16,-14.80
2020,10,23,14,17,-14.80
2020,10,23,14,18,-14.80
2020,10,23,14,19,-14.70
2020,10,23,14,20,-14.70
2020,10,23,14,21,-14.70
2020,10,23,14,22,-14.70
2020,10,23,14,23,-14.60
2020,10,23,14,24,-14.60
2020,10,23,14,25,-14.60
2020,10,23,14,26,-14.60
2020,10,23,14,27,-14.60
2020,10,23,14,28,-14.60
2020,10,23,14,29,-14.60
2020,10,23,14,30,-14.60
2020,10,23,14,31,-14.50
2020,10,23,14,32,-14.50
2020,10,23,14,33,-14.50
2020,10,23,14,34,-14.50
2020,10,23,14,35,-14.40
2020,10,23,14,36,-14.40
2020,10,23,14,37,-14.40
2020,10,23,14,38,-14.40
2020,10,23,14,39,-14.40
2020,10,23,14,40,-14.40
2020,10,23,14,41,-14.40
2020,10,23,14,42,-14.40
2020,10,23,14,43,-14.30
2020,10,23,14,44,-14.40
2020,10,23,14,45,-14.40
2020,10,23,14,46,-14.30
2020,10,23,14,47,-14.40
2020,10,23,14,48,-14.30
2020,10,23,14,49,-14.30
2020,10,23,14,50,-14.30
2020,10,23,14,51,-14.30
2020,10,23,14,52,-14.30
2020,10,23,14,53,-14.20
2020,10,23,14,54,-14.20
2020,10,23,14,55,-14.20
2020,10,23,14,56,-14.10
2020,10,23,14,57,-14.10
2020,10,23,14,58,-14.10
2020,10,23,14,59,-14.00
2020,10,23,15,00,-14.00
2020,10,23,15,01,-13.90
2020,10,23,15,02,-13.90
2020,10,23,15,03,-13.90
2020,10,23,15,04,-13.90
2020,10,23,15,05,-13.90
2020,10,23,15,06,-13.90
2020,10,23,15,07,-13.90
2020,10,23,15,08,-13.80
2020,10,23,15,09,-13.80
2020,10,23,15,10,-13.80
2020,10,23,15,11,-13.80
2020,10,23,15,12,-13.80
2020,10,23,15,13,-13.80
2020,10,23,15,14,-13.80
2020,10,23,15,15,-13.70
2020,10,23,15,16,-13.70
2020,10,23,15,17,-13.70
2020,10,23,15,18,-13.60
2020,10,23,15,19,-13.50
2020,10,23,15,20,-13.50
2020,10,23,15,21,-13.40
2020,10,23,15,22,-13.40
2020,10,23,15,23,-13.30
2020,10,23,15,24,-13.30
2020,10,23,15,25,-13.30
2020,10,23,15,26,-13.30
2020,10,23,15,27,-13.30
2020,10,23,15,28,-13.30
2020,10,23,15,29,-13.30
2020,10,23,15,30,-13.30
2020,10,23,15,31,-13.20
2020,10,23,15,32,-13.20
2020,10,23,15,33,-13.20
2020,10,23,15,34,-13.10
2020,10,23,15,35,-13.10
2020,10,23,15,36,-13.00
2020,10,23,15,37,-12.90
2020,10,23,15,38,-12.90
2020,10,23,15,39,-12.90
2020,10,23,15,40,-12.80
2020,10,23,15,41,-12.80
2020,10,23,15,42,-12.80
2020,10,23,15,43,-12.80
2020,10,23,15,44,-12.80
2020,10,23,15,45,-12.80
2020,10,23,15,46,-12.80
2020,10,23,15,47,-12.80
2020,10,23,15,48,-12.80
2020,10,23,15,49,-12.80
2020,10,23,15,50,-12.80
2020,10,23,15,51,-12.80
2020,10,23,15,52,-12.80
2020,10,23,15,53,-12.80
2020,10,23,15,54,-12.80
2020,10,23,15,55,-12.70
2020,10,23,15,56,-12.70
2020,10,23,15,57,-12.70
2020,10,23,15,58,-12.70
2020,10,23,15,59,-12.70
2020,10,23,16,00,-12.70
2020,10,23,16,01,-12.70
2020,10,23,16,02,-12.70
2020,10,23,16,03,-12.70
2020,10,23,16,04,-12.70
2020,10,23,16,05,-12.70
2020,10,23,16,06,-12.70
2020,10,23,16,07,-12.70
2020,10,23,16,08,-12.70
2020,10,23,16,09,-12.70
2020,10,23,16,10,-12.80
2020,10,23,16,11,-12.80
2020,10,23,16,12,-12.80
2020,10,23,16,13,-12.90
2020,10,23,16,14,-12.90
2020,10,23,16,15,-12.90
2020,10,23,16,16,-13.00
2020,10,23,16,17,-13.00
2020,10,23,16,18,-13.10
2020,10,23,16,19,-13.10
2020,10,23,16,20,-13.10
2020,10,23,16,21,-13.20
2020,10,23,16,22,-13.20
2020,10,23,16,23,-13.20
2020,10,23,16,24,-13.20
2020,10,23,16,25,-13.20
2020,10,23,16,26,-13.30
2020,10,23,16,27,-13.30
2020,10,23,16,28,-13.30
2020,10,23,16,29,-13.30
2020,10,23,16,30,-13.30
2020,10,23,16,31,-13.30
2020,10,23,16,32,-13.30
2020,10,23,16,33,-13.30
2020,10,23,16,34,-13.40
2020,10,23,16,35,-13.40
2020,10,23,16,36,-13.40